Location: Praha
(50.0830°N, 14.4670°E)
Time: 19:54:43
(UTC+01:00)

ISS - Pass Details

Date: 07 December 2019
Orbit: 411 x 421 km, 51.6° (Epoch: 08 December)

Event Time Altitude Azimuth Distance (km) Brightness Sun altitude
Rises 17:36:31 0° 287° (WNW) 2,359 1.0 -14.5°
Reaches altitude 10° 17:38:38 10° 284° (WNW) 1,495 0.0 -14.9°
Maximum altitude 17:41:56 58° 204° (SSW) 490 -3.3 -15.4°
Enters shadow 17:44:04 20° 130° (SE) 1,032 -2.1 -15.7°
